Location: Berg
(47.2344°N, 9.5296°E)
Time: 22:15:22
(UTC+00:00)

AAUSAT CUBESAT 2 - Pass Details

Date: 07 December 2021
Orbit: 571 x 586 km, 97.5° (Epoch: 19 January)

Event Time Altitude Azimuth Distance (km) Brightness Sun altitude
Rises 04:05:01 0° 19° (NNE) 2,800 ? -27.8°
Reaches altitude 10° 04:07:17 10° 28° (NNE) 1,899 ? -27.4°
Maximum altitude 04:11:09 39° 97° (E) 882 ? -26.8°
Drops below altitude 10° 04:15:00 10° 167° (SSE) 1,893 ? -26.1°
Sets 04:17:16 0° 175° (S) 2,789 ? -25.7°
